Погода в Репецкой Плате

Россия / Курская область     51˚28′26″N   37˚18′24″E
темп.,
°C
ветер,
м/с
пор.,
м/с
влажн.,
%
обл.,
%
осадки,
мм/ч
давл.,
гПа
погр.,
м
17 января, вс
вс1700:00−18˚з6119367 0.0 1014318
03:00−20˚з4109653 0.0 1014230
06:00−21˚з369876 0.0 1014112
09:00−21˚з349876 0.1 101474
12:00−18˚сз239561 0.0 1015149
15:00−17˚з129541 0.0 101525
18:00−20˚ссз23970 0.0 101620
21:00−20˚ссв229737 0.0 101720
18 января, пн
пн1800:00−20˚св229698 0.0 101829
03:00−19˚ссв239599 0.0 101856
06:00−19˚св2296100 0.0 101869
09:00−19˚всв2496100 0.0 1019164
12:00−17˚св1193100 0.1 1019190
15:00−16˚ссв2294100 0.3 1018212
18:00−18˚ссв2297100 0.2 101867
21:00−18˚ссв1197100 0.3 101920
19 января, вт
вт1900:00−20˚с1197100 0.1 101820
03:00−21˚сз119899 0.1 101820
06:00−19˚сз1297100 0.1 101822
09:00−19˚сз229797 0.1 101844
12:00−18˚зсз239386 0.1 1018250
15:00−17˚зсз239592 0.1 1017283
18:00−20˚зсз239890 0.0 101830
21:00−19˚зсз239795 0.1 102056
20 января, ср
ср2000:00−20˚зсз339882 0.0 102041
03:00−21˚зсз349751 0.0 102246
06:00−22˚зсз34972 0.0 102350
09:00−21˚зсз33973 0.0 102433
12:00−18˚зсз34952 0.0 1025157
15:00−16˚з23951 0.0 1025132
18:00−19˚з23960 0.0 102720
21:00−19˚зюз22970 0.0 102820
21 января, чт
чт2100:00−19˚зюз23970 0.0 102820
03:00−18˚юз33970 0.0 102925
06:00−18˚юз34960 0.0 102855
09:00−17˚ююз45930 0.0 102887
12:00−12˚ююз510870 0.0 1027278
15:00−10˚ююз511883 0.0 1025282
18:00−11˚ююз5119458 0.0 1024265
21:00−6˚юз6139579 0.1 1023506